<?xml version="1.0" encoding="UTF-8" standalone="no" ?>
<gpx xmlns="http://www.topografix.com/GPX/1/1" xmlns:xsi="http://www.w3.org/2001/XMLSchema-instance" xsi:schemaLocation="http://www.topografix.com/GPX/1/1 http://www.topografix.com/GPX/1/1/gpx.xsd" version="1.1" creator="VisuGPX - https://www.visugpx.com">
  <metadata>
    <name>Pic du Tourroc 1541m (65)</name>
    <desc><![CDATA[Randonnée avec le club Muret-Montagne le 10/04/11.
Par temps clair, la vue doit y être magnifique...
Ce fut une excellente journée malgré le froid et le brouillard!]]></desc>
  </metadata>
  <trk>
    <name><![CDATA[ACTIVE LOG084623]]></name>
    <trkseg>
      <trkpt lat="42.98767" lon="0.56396">
        <ele>588.709</ele>
        <time>2011-04-10T06:46:20Z</time>
      </trkpt>
      <trkpt lat="42.98767" lon="0.56396">
        <ele>588.709</ele>
        <time>2011-04-10T06:46:21Z</time>
      </trkpt>
      <trkpt lat="42.98767" lon="0.56396">
        <ele>588.933</ele>
        <time>2011-04-10T06:46:24Z</time>
      </trkpt>
      <trkpt lat="42.98767" lon="0.56395">
        <ele>590.279</ele>
        <time>2011-04-10T06:46:28Z</time>
      </trkpt>
      <trkpt lat="42.98767" lon="0.56395">
        <ele>593.453</ele>
        <time>2011-04-10T06:46:44Z</time>
      </trkpt>
      <trkpt lat="42.98767" lon="0.56394">
        <ele>596.612</ele>
        <time>2011-04-10T06:47:01Z</time>
      </trkpt>
      <trkpt lat="42.98767" lon="0.56395">
        <ele>598.411</ele>
        <time>2011-04-10T06:47:36Z</time>
      </trkpt>
      <trkpt lat="42.9877" lon="0.56398">
        <ele>598.901</ele>
        <time>2011-04-10T06:47:37Z</time>
      </trkpt>
      <trkpt lat="42.98769" lon="0.56395">
        <ele>598.048</ele>
        <time>2011-04-10T06:47:50Z</time>
      </trkpt>
      <trkpt lat="42.98769" lon="0.56395">
        <ele>598.012</ele>
        <time>2011-04-10T06:48:26Z</time>
      </trkpt>
      <trkpt lat="42.98768" lon="0.56393">
        <ele>598.932</ele>
        <time>2011-04-10T06:49:03Z</time>
      </trkpt>
      <trkpt lat="42.9877" lon="0.56386">
        <ele>599.143</ele>
        <time>2011-04-10T06:49:24Z</time>
      </trkpt>
      <trkpt lat="42.98768" lon="0.56381">
        <ele>599.611</ele>
        <time>2011-04-10T06:49:45Z</time>
      </trkpt>
      <trkpt lat="42.98766" lon="0.56382">
        <ele>599.635</ele>
        <time>2011-04-10T06:50:13Z</time>
      </trkpt>
      <trkpt lat="42.98759" lon="0.56376">
        <ele>599.974</ele>
        <time>2011-04-10T06:50:28Z</time>
      </trkpt>
      <trkpt lat="42.98757" lon="0.56376">
        <ele>599.801</ele>
        <time>2011-04-10T06:50:47Z</time>
      </trkpt>
      <trkpt lat="42.98758" lon="0.56379">
        <ele>599.617</ele>
        <time>2011-04-10T06:51:08Z</time>
      </trkpt>
      <trkpt lat="42.98751" lon="0.56368">
        <ele>600.773</ele>
        <time>2011-04-10T06:51:19Z</time>
      </trkpt>
      <trkpt lat="42.98744" lon="0.56354">
        <ele>600.944</ele>
        <time>2011-04-10T06:51:34Z</time>
      </trkpt>
      <trkpt lat="42.98733" lon="0.56334">
        <ele>598.856</ele>
        <time>2011-04-10T06:51:53Z</time>
      </trkpt>
      <trkpt lat="42.98722" lon="0.56306">
        <ele>601.178</ele>
        <time>2011-04-10T06:52:14Z</time>
      </trkpt>
      <trkpt lat="42.98721" lon="0.56298">
        <ele>601.887</ele>
        <time>2011-04-10T06:52:21Z</time>
      </trkpt>
      <trkpt lat="42.98723" lon="0.56285">
        <ele>601.963</ele>
        <time>2011-04-10T06:52:37Z</time>
      </trkpt>
      <trkpt lat="42.98723" lon="0.56285">
        <ele>602.263</ele>
        <time>2011-04-10T06:52:57Z</time>
      </trkpt>
      <trkpt lat="42.98724" lon="0.56287">
        <ele>601.996</ele>
        <time>2011-04-10T06:53:30Z</time>
      </trkpt>
      <trkpt lat="42.98723" lon="0.56292">
        <ele>602.161</ele>
        <time>2011-04-10T06:53:48Z</time>
      </trkpt>
      <trkpt lat="42.98721" lon="0.56298">
        <ele>601.925</ele>
        <time>2011-04-10T06:53:59Z</time>
      </trkpt>
      <trkpt lat="42.98721" lon="0.56306">
        <ele>601.611</ele>
        <time>2011-04-10T06:54:13Z</time>
      </trkpt>
      <trkpt lat="42.98714" lon="0.56313">
        <ele>601.149</ele>
        <time>2011-04-10T06:54:22Z</time>
      </trkpt>
      <trkpt lat="42.98695" lon="0.56304">
        <ele>599.82</ele>
        <time>2011-04-10T06:54:39Z</time>
      </trkpt>
      <trkpt lat="42.98676" lon="0.56304">
        <ele>600.498</ele>
        <time>2011-04-10T06:54:56Z</time>
      </trkpt>
      <trkpt lat="42.98659" lon="0.56305">
        <ele>602.702</ele>
        <time>2011-04-10T06:55:13Z</time>
      </trkpt>
      <trkpt lat="42.98635" lon="0.56301">
        <ele>604.648</ele>
        <time>2011-04-10T06:55:37Z</time>
      </trkpt>
      <trkpt lat="42.98622" lon="0.56301">
        <ele>605.03</ele>
        <time>2011-04-10T06:55:57Z</time>
      </trkpt>
      <trkpt lat="42.98608" lon="0.563">
        <ele>604.591</ele>
        <time>2011-04-10T06:56:12Z</time>
      </trkpt>
      <trkpt lat="42.98607" lon="0.56298">
        <ele>604.864</ele>
        <time>2011-04-10T06:56:25Z</time>
      </trkpt>
      <trkpt lat="42.98599" lon="0.56294">
        <ele>605.421</ele>
        <time>2011-04-10T06:56:41Z</time>
      </trkpt>
      <trkpt lat="42.98579" lon="0.56295">
        <ele>605.365</ele>
        <time>2011-04-10T06:57:00Z</time>
      </trkpt>
      <trkpt lat="42.98563" lon="0.56297">
        <ele>606.197</ele>
        <time>2011-04-10T06:57:17Z</time>
      </trkpt>
      <trkpt lat="42.98545" lon="0.56305">
        <ele>607.054</ele>
        <time>2011-04-10T06:57:34Z</time>
      </trkpt>
      <trkpt lat="42.98543" lon="0.56305">
        <ele>607.284</ele>
        <time>2011-04-10T06:57:36Z</time>
      </trkpt>
      <trkpt lat="42.98532" lon="0.56303">
        <ele>608.25</ele>
        <time>2011-04-10T06:57:48Z</time>
      </trkpt>
      <trkpt lat="42.98515" lon="0.56301">
        <ele>609.789</ele>
        <time>2011-04-10T06:58:05Z</time>
      </trkpt>
      <trkpt lat="42.98497" lon="0.56295">
        <ele>611.504</ele>
        <time>2011-04-10T06:58:25Z</time>
      </trkpt>
      <trkpt lat="42.98488" lon="0.56293">
        <ele>611.603</ele>
        <time>2011-04-10T06:58:34Z</time>
      </trkpt>
      <trkpt lat="42.98486" lon="0.56294">
        <ele>611.749</ele>
        <time>2011-04-10T06:58:36Z</time>
      </trkpt>
      <trkpt lat="42.98471" lon="0.5629">
        <ele>612.336</ele>
        <time>2011-04-10T06:58:50Z</time>
      </trkpt>
      <trkpt lat="42.98455" lon="0.56304">
        <ele>613.092</ele>
        <time>2011-04-10T06:59:08Z</time>
      </trkpt>
      <trkpt lat="42.9844" lon="0.56318">
        <ele>614.087</ele>
        <time>2011-04-10T06:59:26Z</time>
      </trkpt>
      <trkpt lat="42.98423" lon="0.56328">
        <ele>615.312</ele>
        <time>2011-04-10T06:59:43Z</time>
      </trkpt>
      <trkpt lat="42.984" lon="0.56344">
        <ele>615.95</ele>
        <time>2011-04-10T07:00:07Z</time>
      </trkpt>
      <trkpt lat="42.98383" lon="0.56358">
        <ele>616.138</ele>
        <time>2011-04-10T07:00:26Z</time>
      </trkpt>
      <trkpt lat="42.98358" lon="0.56364">
        <ele>616.36</ele>
        <time>2011-04-10T07:00:50Z</time>
      </trkpt>
      <trkpt lat="42.98338" lon="0.56382">
        <ele>616.918</ele>
        <time>2011-04-10T07:01:11Z</time>
      </trkpt>
      <trkpt lat="42.98324" lon="0.56397">
        <ele>617.797</ele>
        <time>2011-04-10T07:01:28Z</time>
      </trkpt>
      <trkpt lat="42.98323" lon="0.56396">
        <ele>617.647</ele>
        <time>2011-04-10T07:01:29Z</time>
      </trkpt>
      <trkpt lat="42.98319" lon="0.56393">
        <ele>617.843</ele>
        <time>2011-04-10T07:01:44Z</time>
      </trkpt>
      <trkpt lat="42.98322" lon="0.56395">
        <ele>618.042</ele>
        <time>2011-04-10T07:02:07Z</time>
      </trkpt>
      <trkpt lat="42.98319" lon="0.56394">
        <ele>618.699</ele>
        <time>2011-04-10T07:02:28Z</time>
      </trkpt>
      <trkpt lat="42.98318" lon="0.56394">
        <ele>616.563</ele>
        <time>2011-04-10T07:02:59Z</time>
      </trkpt>
      <trkpt lat="42.98311" lon="0.56401">
        <ele>617.268</ele>
        <time>2011-04-10T07:03:20Z</time>
      </trkpt>
      <trkpt lat="42.98304" lon="0.56405">
        <ele>616.19</ele>
        <time>2011-04-10T07:03:31Z</time>
      </trkpt>
      <trkpt lat="42.98282" lon="0.56431">
        <ele>614.565</ele>
        <time>2011-04-10T07:03:54Z</time>
      </trkpt>
      <trkpt lat="42.98257" lon="0.56419">
        <ele>615.147</ele>
        <time>2011-04-10T07:04:17Z</time>
      </trkpt>
      <trkpt lat="42.98244" lon="0.56416">
        <ele>617.251</ele>
        <time>2011-04-10T07:04:41Z</time>
      </trkpt>
      <trkpt lat="42.98245" lon="0.56392">
        <ele>618.682</ele>
        <time>2011-04-10T07:05:05Z</time>
      </trkpt>
      <trkpt lat="42.98263" lon="0.56351">
        <ele>620.047</ele>
        <time>2011-04-10T07:05:34Z</time>
      </trkpt>
      <trkpt lat="42.98268" lon="0.56304">
        <ele>622.887</ele>
        <time>2011-04-10T07:06:13Z</time>
      </trkpt>
      <trkpt lat="42.98265" lon="0.56276">
        <ele>624.343</ele>
        <time>2011-04-10T07:06:38Z</time>
      </trkpt>
      <trkpt lat="42.98257" lon="0.56257">
        <ele>627.35</ele>
        <time>2011-04-10T07:07:08Z</time>
      </trkpt>
      <trkpt lat="42.98254" lon="0.56234">
        <ele>630.641</ele>
        <time>2011-04-10T07:07:32Z</time>
      </trkpt>
      <trkpt lat="42.98248" lon="0.56213">
        <ele>633.817</ele>
        <time>2011-04-10T07:07:59Z</time>
      </trkpt>
      <trkpt lat="42.98252" lon="0.56189">
        <ele>634.121</ele>
        <time>2011-04-10T07:08:25Z</time>
      </trkpt>
      <trkpt lat="42.98264" lon="0.56155">
        <ele>635.587</ele>
        <time>2011-04-10T07:08:54Z</time>
      </trkpt>
      <trkpt lat="42.98275" lon="0.56127">
        <ele>638.645</ele>
        <time>2011-04-10T07:09:23Z</time>
      </trkpt>
      <trkpt lat="42.98283" lon="0.56103">
        <ele>640.234</ele>
        <time>2011-04-10T07:09:48Z</time>
      </trkpt>
      <trkpt lat="42.98289" lon="0.56078">
        <ele>643.274</ele>
        <time>2011-04-10T07:10:15Z</time>
      </trkpt>
      <trkpt lat="42.98291" lon="0.56056">
        <ele>645.196</ele>
        <time>2011-04-10T07:10:44Z</time>
      </trkpt>
      <trkpt lat="42.98288" lon="0.56045">
        <ele>648.225</ele>
        <time>2011-04-10T07:11:06Z</time>
      </trkpt>
      <trkpt lat="42.98286" lon="0.56043">
        <ele>647.832</ele>
        <time>2011-04-10T07:11:37Z</time>
      </trkpt>
      <trkpt lat="42.98281" lon="0.5604">
        <ele>648.109</ele>
        <time>2011-04-10T07:12:11Z</time>
      </trkpt>
      <trkpt lat="42.98279" lon="0.56037">
        <ele>648.116</ele>
        <time>2011-04-10T07:12:47Z</time>
      </trkpt>
      <trkpt lat="42.98279" lon="0.56036">
        <ele>648.168</ele>
        <time>2011-04-10T07:13:22Z</time>
      </trkpt>
      <trkpt lat="42.98281" lon="0.56037">
        <ele>648.443</ele>
        <time>2011-04-10T07:13:54Z</time>
      </trkpt>
      <trkpt lat="42.98293" lon="0.56031">
        <ele>650.334</ele>
        <time>2011-04-10T07:14:24Z</time>
      </trkpt>
      <trkpt lat="42.98291" lon="0.56012">
        <ele>653.457</ele>
        <time>2011-04-10T07:14:49Z</time>
      </trkpt>
      <trkpt lat="42.98295" lon="0.55992">
        <ele>656.518</ele>
        <time>2011-04-10T07:15:10Z</time>
      </trkpt>
      <trkpt lat="42.98306" lon="0.55973">
        <ele>659.862</ele>
        <time>2011-04-10T07:15:34Z</time>
      </trkpt>
      <trkpt lat="42.98315" lon="0.55958">
        <ele>662.6</ele>
        <time>2011-04-10T07:15:58Z</time>
      </trkpt>
      <trkpt lat="42.98319" lon="0.5595">
        <ele>665.78</ele>
        <time>2011-04-10T07:16:18Z</time>
      </trkpt>
      <trkpt lat="42.98322" lon="0.55927">
        <ele>668.942</ele>
        <time>2011-04-10T07:16:43Z</time>
      </trkpt>
      <trkpt lat="42.98325" lon="0.55912">
        <ele>671.991</ele>
        <time>2011-04-10T07:17:02Z</time>
      </trkpt>
      <trkpt lat="42.98323" lon="0.55898">
        <ele>675.333</ele>
        <time>2011-04-10T07:17:24Z</time>
      </trkpt>
      <trkpt lat="42.98315" lon="0.55902">
        <ele>677.716</ele>
        <time>2011-04-10T07:17:52Z</time>
      </trkpt>
      <trkpt lat="42.98303" lon="0.55918">
        <ele>679.028</ele>
        <time>2011-04-10T07:18:11Z</time>
      </trkpt>
      <trkpt lat="42.98289" lon="0.55931">
        <ele>681.232</ele>
        <time>2011-04-10T07:18:32Z</time>
      </trkpt>
      <trkpt lat="42.98275" lon="0.55953">
        <ele>684.015</ele>
        <time>2011-04-10T07:18:58Z</time>
      </trkpt>
      <trkpt lat="42.9826" lon="0.5597">
        <ele>686.29</ele>
        <time>2011-04-10T07:19:21Z</time>
      </trkpt>
      <trkpt lat="42.98248" lon="0.5599">
        <ele>687.234</ele>
        <time>2011-04-10T07:19:43Z</time>
      </trkpt>
      <trkpt lat="42.98237" lon="0.5601">
        <ele>688.628</ele>
        <time>2011-04-10T07:20:06Z</time>
      </trkpt>
      <trkpt lat="42.98225" lon="0.56019">
        <ele>690.864</ele>
        <time>2011-04-10T07:20:25Z</time>
      </trkpt>
      <trkpt lat="42.98216" lon="0.5603">
        <ele>692.048</ele>
        <time>2011-04-10T07:20:43Z</time>
      </trkpt>
      <trkpt lat="42.98212" lon="0.56036">
        <ele>694.18</ele>
        <time>2011-04-10T07:20:53Z</time>
      </trkpt>
      <trkpt lat="42.98204" lon="0.56055">
        <ele>695.532</ele>
        <time>2011-04-10T07:21:12Z</time>
      </trkpt>
      <trkpt lat="42.9819" lon="0.56068">
        <ele>697.245</ele>
        <time>2011-04-10T07:21:33Z</time>
      </trkpt>
      <trkpt lat="42.98178" lon="0.56083">
        <ele>699.334</ele>
        <time>2011-04-10T07:21:57Z</time>
      </trkpt>
      <trkpt lat="42.9817" lon="0.5609">
        <ele>701.111</ele>
        <time>2011-04-10T07:22:13Z</time>
      </trkpt>
      <trkpt lat="42.98156" lon="0.56102">
        <ele>704.002</ele>
        <time>2011-04-10T07:22:34Z</time>
      </trkpt>
      <trkpt lat="42.98148" lon="0.56105">
        <ele>706.266</ele>
        <time>2011-04-10T07:22:51Z</time>
      </trkpt>
      <trkpt lat="42.9814" lon="0.56111">
        <ele>708.665</ele>
        <time>2011-04-10T07:23:07Z</time>
      </trkpt>
      <trkpt lat="42.98129" lon="0.56118">
        <ele>710.549</ele>
        <time>2011-04-10T07:23:25Z</time>
      </trkpt>
      <trkpt lat="42.98118" lon="0.56126">
        <ele>713.273</ele>
        <time>2011-04-10T07:23:45Z</time>
      </trkpt>
      <trkpt lat="42.98111" lon="0.56135">
        <ele>716.321</ele>
        <time>2011-04-10T07:24:08Z</time>
      </trkpt>
      <trkpt lat="42.98101" lon="0.5614">
        <ele>719.421</ele>
        <time>2011-04-10T07:24:27Z</time>
      </trkpt>
      <trkpt lat="42.98098" lon="0.56143">
        <ele>721.536</ele>
        <time>2011-04-10T07:24:44Z</time>
      </trkpt>
      <trkpt lat="42.98091" lon="0.56149">
        <ele>723.261</ele>
        <time>2011-04-10T07:25:06Z</time>
      </trkpt>
      <trkpt lat="42.98084" lon="0.56156">
        <ele>725.254</ele>
        <time>2011-04-10T07:25:31Z</time>
      </trkpt>
      <trkpt lat="42.98077" lon="0.56165">
        <ele>727.163</ele>
        <time>2011-04-10T07:25:54Z</time>
      </trkpt>
      <trkpt lat="42.98066" lon="0.56173">
        <ele>729.763</ele>
        <time>2011-04-10T07:26:14Z</time>
      </trkpt>
      <trkpt lat="42.98055" lon="0.56193">
        <ele>733.108</ele>
        <time>2011-04-10T07:26:36Z</time>
      </trkpt>
      <trkpt lat="42.98047" lon="0.56203">
        <ele>734.863</ele>
        <time>2011-04-10T07:26:57Z</time>
      </trkpt>
      <trkpt lat="42.98035" lon="0.56211">
        <ele>737.181</ele>
        <time>2011-04-10T07:27:14Z</time>
      </trkpt>
      <trkpt lat="42.98026" lon="0.56219">
        <ele>740.296</ele>
        <time>2011-04-10T07:27:35Z</time>
      </trkpt>
      <trkpt lat="42.98022" lon="0.56226">
        <ele>742.519</ele>
        <time>2011-04-10T07:27:53Z</time>
      </trkpt>
      <trkpt lat="42.98018" lon="0.56214">
        <ele>745.7</ele>
        <time>2011-04-10T07:28:15Z</time>
      </trkpt>
      <trkpt lat="42.98023" lon="0.56201">
        <ele>747.961</ele>
        <time>2011-04-10T07:28:38Z</time>
      </trkpt>
      <trkpt lat="42.98028" lon="0.56177">
        <ele>751.099</ele>
        <time>2011-04-10T07:29:02Z</time>
      </trkpt>
      <trkpt lat="42.98023" lon="0.56163">
        <ele>753.541</ele>
        <time>2011-04-10T07:29:20Z</time>
      </trkpt>
      <trkpt lat="42.98023" lon="0.56146">
        <ele>756.551</ele>
        <time>2011-04-10T07:29:46Z</time>
      </trkpt>
      <trkpt lat="42.98024" lon="0.56132">
        <ele>759.652</ele>
        <time>2011-04-10T07:30:07Z</time>
      </trkpt>
      <trkpt lat="42.9802" lon="0.56117">
        <ele>762.74</ele>
        <time>2011-04-10T07:30:29Z</time>
      </trkpt>
      <trkpt lat="42.9802" lon="0.56098">
        <ele>765.506</ele>
        <time>2011-04-10T07:30:53Z</time>
      </trkpt>
      <trkpt lat="42.98024" lon="0.56085">
        <ele>768.875</ele>
        <time>2011-04-10T07:31:17Z</time>
      </trkpt>
      <trkpt lat="42.98024" lon="0.56078">
        <ele>772.051</ele>
        <time>2011-04-10T07:31:40Z</time>
      </trkpt>
      <trkpt lat="42.98022" lon="0.56056">
        <ele>774.965</ele>
        <time>2011-04-10T07:32:06Z</time>
      </trkpt>
      <trkpt lat="42.98027" lon="0.5604">
        <ele>778.234</ele>
        <time>2011-04-10T07:32:29Z</time>
      </trkpt>
      <trkpt lat="42.98026" lon="0.5603">
        <ele>779.096</ele>
        <time>2011-04-10T07:32:41Z</time>
      </trkpt>
      <trkpt lat="42.98025" lon="0.55996">
        <ele>782.1</ele>
        <time>2011-04-10T07:33:06Z</time>
      </trkpt>
      <trkpt lat="42.98035" lon="0.55969">
        <ele>783.505</ele>
        <time>2011-04-10T07:33:30Z</time>
      </trkpt>
      <trkpt lat="42.98044" lon="0.5594">
        <ele>784.896</ele>
        <time>2011-04-10T07:33:55Z</time>
      </trkpt>
      <trkpt lat="42.98058" lon="0.55917">
        <ele>787.198</ele>
        <time>2011-04-10T07:34:21Z</time>
      </trkpt>
      <trkpt lat="42.9807" lon="0.5589">
        <ele>790.202</ele>
        <time>2011-04-10T07:34:51Z</time>
      </trkpt>
      <trkpt lat="42.98073" lon="0.55873">
        <ele>792.801</ele>
        <time>2011-04-10T07:35:15Z</time>
      </trkpt>
      <trkpt lat="42.98082" lon="0.55872">
        <ele>794.437</ele>
        <time>2011-04-10T07:35:29Z</time>
      </trkpt>
      <trkpt lat="42.9809" lon="0.55864">
        <ele>796.489</ele>
        <time>2011-04-10T07:35:47Z</time>
      </trkpt>
      <trkpt lat="42.98092" lon="0.55846">
        <ele>798.255</ele>
        <time>2011-04-10T07:36:12Z</time>
      </trkpt>
      <trkpt lat="42.98102" lon="0.55842">
        <ele>798.304</ele>
        <time>2011-04-10T07:36:41Z</time>
      </trkpt>
      <trkpt lat="42.98106" lon="0.55841">
        <ele>798.4</ele>
        <time>2011-04-10T07:37:07Z</time>
      </trkpt>
      <trkpt lat="42.98107" lon="0.55842">
        <ele>798.927</ele>
        <time>2011-04-10T07:37:39Z</time>
      </trkpt>
      <trkpt lat="42.98109" lon="0.55843">
        <ele>798.99</ele>
        <time>2011-04-10T07:38:05Z</time>
      </trkpt>
      <trkpt lat="42.9811" lon="0.55842">
        <ele>799.406</ele>
        <time>2011-04-10T07:38:34Z</time>
      </trkpt>
      <trkpt lat="42.98109" lon="0.55841">
        <ele>799.657</ele>
        <time>2011-04-10T07:38:57Z</time>
      </trkpt>
      <trkpt lat="42.98118" lon="0.55818">
        <ele>799.828</ele>
        <time>2011-04-10T07:39:21Z</time>
      </trkpt>
      <trkpt lat="42.98112" lon="0.55825">
        <ele>801.228</ele>
        <time>2011-04-10T07:39:45Z</time>
      </trkpt>
      <trkpt lat="42.98112" lon="0.55807">
        <ele>804.292</ele>
        <time>2011-04-10T07:40:11Z</time>
      </trkpt>
      <trkpt lat="42.98112" lon="0.55792">
        <ele>806.516</ele>
        <time>2011-04-10T07:40:30Z</time>
      </trkpt>
      <trkpt lat="42.98112" lon="0.55773">
        <ele>809.53</ele>
        <time>2011-04-10T07:40:49Z</time>
      </trkpt>
      <trkpt lat="42.98114" lon="0.55763">
        <ele>811.992</ele>
        <time>2011-04-10T07:41:11Z</time>
      </trkpt>
      <trkpt lat="42.98115" lon="0.55756">
        <ele>815.404</ele>
        <time>2011-04-10T07:41:37Z</time>
      </trkpt>
      <trkpt lat="42.9812" lon="0.55733">
        <ele>817.82</ele>
        <time>2011-04-10T07:41:54Z</time>
      </trkpt>
      <trkpt lat="42.98125" lon="0.55716">
        <ele>820.714</ele>
        <time>2011-04-10T07:42:18Z</time>
      </trkpt>
      <trkpt lat="42.9813" lon="0.55702">
        <ele>823.943</ele>
        <time>2011-04-10T07:42:40Z</time>
      </trkpt>
      <trkpt lat="42.98137" lon="0.5568">
        <ele>826.967</ele>
        <time>2011-04-10T07:43:03Z</time>
      </trkpt>
      <trkpt lat="42.9814" lon="0.55658">
        <ele>829.436</ele>
        <time>2011-04-10T07:43:25Z</time>
      </trkpt>
      <trkpt lat="42.98143" lon="0.5564">
        <ele>832.489</ele>
        <time>2011-04-10T07:43:51Z</time>
      </trkpt>
      <trkpt lat="42.98148" lon="0.55626">
        <ele>834.773</ele>
        <time>2011-04-10T07:44:13Z</time>
      </trkpt>
      <trkpt lat="42.98156" lon="0.55614">
        <ele>837.525</ele>
        <time>2011-04-10T07:44:36Z</time>
      </trkpt>
      <trkpt lat="42.98159" lon="0.55608">
        <ele>840.301</ele>
        <time>2011-04-10T07:45:00Z</time>
      </trkpt>
      <trkpt lat="42.98164" lon="0.55599">
        <ele>843.313</ele>
        <time>2011-04-10T07:45:20Z</time>
      </trkpt>
      <trkpt lat="42.98165" lon="0.55582">
        <ele>845.988</ele>
        <time>2011-04-10T07:45:41Z</time>
      </trkpt>
      <trkpt lat="42.9817" lon="0.55567">
        <ele>848.432</ele>
        <time>2011-04-10T07:46:05Z</time>
      </trkpt>
      <trkpt lat="42.98173" lon="0.5555">
        <ele>851.005</ele>
        <time>2011-04-10T07:46:27Z</time>
      </trkpt>
      <trkpt lat="42.98175" lon="0.55536">
        <ele>853.635</ele>
        <time>2011-04-10T07:46:45Z</time>
      </trkpt>
      <trkpt lat="42.98178" lon="0.55518">
        <ele>855.99</ele>
        <time>2011-04-10T07:47:09Z</time>
      </trkpt>
      <trkpt lat="42.98181" lon="0.55506">
        <ele>857.974</ele>
        <time>2011-04-10T07:47:26Z</time>
      </trkpt>
      <trkpt lat="42.98183" lon="0.5549">
        <ele>858.659</ele>
        <time>2011-04-10T07:47:45Z</time>
      </trkpt>
      <trkpt lat="42.98186" lon="0.55491">
        <ele>860.406</ele>
        <time>2011-04-10T07:48:13Z</time>
      </trkpt>
      <trkpt lat="42.98188" lon="0.55488">
        <ele>860.731</ele>
        <time>2011-04-10T07:48:40Z</time>
      </trkpt>
      <trkpt lat="42.9819" lon="0.55486">
        <ele>860.526</ele>
        <time>2011-04-10T07:49:04Z</time>
      </trkpt>
      <trkpt lat="42.98191" lon="0.55488">
        <ele>861.076</ele>
        <time>2011-04-10T07:49:30Z</time>
      </trkpt>
      <trkpt lat="42.98193" lon="0.55493">
        <ele>861.171</ele>
        <time>2011-04-10T07:49:57Z</time>
      </trkpt>
      <trkpt lat="42.98196" lon="0.55492">
        <ele>862.679</ele>
        <time>2011-04-10T07:50:22Z</time>
      </trkpt>
      <trkpt lat="42.98198" lon="0.55485">
        <ele>863.742</ele>
        <time>2011-04-10T07:50:28Z</time>
      </trkpt>
      <trkpt lat="42.98197" lon="0.55489">
        <ele>863.815</ele>
        <time>2011-04-10T07:50:30Z</time>
      </trkpt>
      <trkpt lat="42.98202" lon="0.5548">
        <ele>865.04</ele>
        <time>2011-04-10T07:50:41Z</time>
      </trkpt>
      <trkpt lat="42.98207" lon="0.5547">
        <ele>868.3</ele>
        <time>2011-04-10T07:51:06Z</time>
      </trkpt>
      <trkpt lat="42.98208" lon="0.5546">
        <ele>870.985</ele>
        <time>2011-04-10T07:51:32Z</time>
      </trkpt>
      <trkpt lat="42.98208" lon="0.55443">
        <ele>873.44</ele>
        <time>2011-04-10T07:51:48Z</time>
      </trkpt>
      <trkpt lat="42.98213" lon="0.55428">
        <ele>875.586</ele>
        <time>2011-04-10T07:52:10Z</time>
      </trkpt>
      <trkpt lat="42.98218" lon="0.55417">
        <ele>878.806</ele>
        <time>2011-04-10T07:52:34Z</time>
      </trkpt>
      <trkpt lat="42.98226" lon="0.5541">
        <ele>881.859</ele>
        <time>2011-04-10T07:52:55Z</time>
      </trkpt>
      <trkpt lat="42.9823" lon="0.55396">
        <ele>884.729</ele>
        <time>2011-04-10T07:53:18Z</time>
      </trkpt>
      <trkpt lat="42.98237" lon="0.55384">
        <ele>887.134</ele>
        <time>2011-04-10T07:53:42Z</time>
      </trkpt>
      <trkpt lat="42.98244" lon="0.55371">
        <ele>890.049</ele>
        <time>2011-04-10T07:54:04Z</time>
      </trkpt>
      <trkpt lat="42.98252" lon="0.55365">
        <ele>893.205</ele>
        <time>2011-04-10T07:54:26Z</time>
      </trkpt>
      <trkpt lat="42.98255" lon="0.55355">
        <ele>895.829</ele>
        <time>2011-04-10T07:54:48Z</time>
      </trkpt>
      <trkpt lat="42.98258" lon="0.55342">
        <ele>898.501</ele>
        <time>2011-04-10T07:55:11Z</time>
      </trkpt>
      <trkpt lat="42.98262" lon="0.55331">
        <ele>901.682</ele>
        <time>2011-04-10T07:55:32Z</time>
      </trkpt>
      <trkpt lat="42.98265" lon="0.5532">
        <ele>904.069</ele>
        <time>2011-04-10T07:55:56Z</time>
      </trkpt>
      <trkpt lat="42.98272" lon="0.55311">
        <ele>907.482</ele>
        <time>2011-04-10T07:56:17Z</time>
      </trkpt>
      <trkpt lat="42.98276" lon="0.55297">
        <ele>910.062</ele>
        <time>2011-04-10T07:56:39Z</time>
      </trkpt>
      <trkpt lat="42.98281" lon="0.55286">
        <ele>913.067</ele>
        <time>2011-04-10T07:57:01Z</time>
      </trkpt>
      <trkpt lat="42.98286" lon="0.5527">
        <ele>916.149</ele>
        <time>2011-04-10T07:57:24Z</time>
      </trkpt>
      <trkpt lat="42.98291" lon="0.55262">
        <ele>918.324</ele>
        <time>2011-04-10T07:57:42Z</time>
      </trkpt>
      <trkpt lat="42.98294" lon="0.55258">
        <ele>919.863</ele>
        <time>2011-04-10T07:58:03Z</time>
      </trkpt>
      <trkpt lat="42.98296" lon="0.55253">
        <ele>921.71</ele>
        <time>2011-04-10T07:58:24Z</time>
      </trkpt>
      <trkpt lat="42.98301" lon="0.55242">
        <ele>924.764</ele>
        <time>2011-04-10T07:58:47Z</time>
      </trkpt>
      <trkpt lat="42.98308" lon="0.55225">
        <ele>927.289</ele>
        <time>2011-04-10T07:59:07Z</time>
      </trkpt>
      <trkpt lat="42.98307" lon="0.55217">
        <ele>929.14</ele>
        <time>2011-04-10T07:59:23Z</time>
      </trkpt>
      <trkpt lat="42.9831" lon="0.55209">
        <ele>931.019</ele>
        <time>2011-04-10T07:59:48Z</time>
      </trkpt>
      <trkpt lat="42.98326" lon="0.552">
        <ele>933.639</ele>
        <time>2011-04-10T08:00:12Z</time>
      </trkpt>
      <trkpt lat="42.98337" lon="0.55186">
        <ele>935.247</ele>
        <time>2011-04-10T08:00:34Z</time>
      </trkpt>
      <trkpt lat="42.98347" lon="0.55172">
        <ele>938.221</ele>
        <time>2011-04-10T08:00:56Z</time>
      </trkpt>
      <trkpt lat="42.98357" lon="0.55171">
        <ele>940.209</ele>
        <time>2011-04-10T08:01:14Z</time>
      </trkpt>
      <trkpt lat="42.98363" lon="0.55168">
        <ele>941.382</ele>
        <time>2011-04-10T08:01:34Z</time>
      </trkpt>
      <trkpt lat="42.98373" lon="0.5516">
        <ele>944.458</ele>
        <time>2011-04-10T08:01:52Z</time>
      </trkpt>
      <trkpt lat="42.98381" lon="0.55144">
        <ele>946.529</ele>
        <time>2011-04-10T08:02:16Z</time>
      </trkpt>
      <trkpt lat="42.98391" lon="0.55132">
        <ele>949.531</ele>
        <time>2011-04-10T08:02:37Z</time>
      </trkpt>
      <trkpt lat="42.98402" lon="0.55119">
        <ele>952.218</ele>
        <time>2011-04-10T08:03:00Z</time>
      </trkpt>
      <trkpt lat="42.9841" lon="0.55109">
        <ele>954.759</ele>
        <time>2011-04-10T08:03:18Z</time>
      </trkpt>
      <trkpt lat="42.98412" lon="0.55092">
        <ele>957.203</ele>
        <time>2011-04-10T08:03:42Z</time>
      </trkpt>
      <trkpt lat="42.98419" lon="0.55081">
        <ele>959.408</ele>
        <time>2011-04-10T08:04:00Z</time>
      </trkpt>
      <trkpt lat="42.98423" lon="0.55067">
        <ele>961.558</ele>
        <time>2011-04-10T08:04:21Z</time>
      </trkpt>
      <trkpt lat="42.98427" lon="0.55053">
        <ele>964.122</ele>
        <time>2011-04-10T08:04:45Z</time>
      </trkpt>
      <trkpt lat="42.98426" lon="0.55037">
        <ele>967.223</ele>
        <time>2011-04-10T08:05:03Z</time>
      </trkpt>
      <trkpt lat="42.98426" lon="0.55023">
        <ele>968.93</ele>
        <time>2011-04-10T08:05:24Z</time>
      </trkpt>
      <trkpt lat="42.9843" lon="0.55019">
        <ele>971.943</ele>
        <time>2011-04-10T08:05:42Z</time>
      </trkpt>
      <trkpt lat="42.98435" lon="0.55013">
        <ele>975.025</ele>
        <time>2011-04-10T08:06:07Z</time>
      </trkpt>
      <trkpt lat="42.98444" lon="0.55003">
        <ele>977.631</ele>
        <time>2011-04-10T08:06:30Z</time>
      </trkpt>
      <trkpt lat="42.98449" lon="0.54993">
        <ele>980.663</ele>
        <time>2011-04-10T08:06:54Z</time>
      </trkpt>
      <trkpt lat="42.9846" lon="0.54973">
        <ele>983.98</ele>
        <time>2011-04-10T08:07:22Z</time>
      </trkpt>
      <trkpt lat="42.98463" lon="0.54964">
        <ele>986.599</ele>
        <time>2011-04-10T08:07:43Z</time>
      </trkpt>
      <trkpt lat="42.98471" lon="0.54952">
        <ele>989.774</ele>
        <time>2011-04-10T08:08:04Z</time>
      </trkpt>
      <trkpt lat="42.9848" lon="0.54943">
        <ele>991.448</ele>
        <time>2011-04-10T08:08:23Z</time>
      </trkpt>
      <trkpt lat="42.98484" lon="0.5493">
        <ele>994.714</ele>
        <time>2011-04-10T08:08:47Z</time>
      </trkpt>
      <trkpt lat="42.98496" lon="0.54919">
        <ele>996.41</ele>
        <time>2011-04-10T08:09:08Z</time>
      </trkpt>
      <trkpt lat="42.98498" lon="0.54911">
        <ele>998.867</ele>
        <time>2011-04-10T08:09:27Z</time>
      </trkpt>
      <trkpt lat="42.98502" lon="0.54902">
        <ele>1001.079</ele>
        <time>2011-04-10T08:09:53Z</time>
      </trkpt>
      <trkpt lat="42.98501" lon="0.549">
        <ele>1002.718</ele>
        <time>2011-04-10T08:10:11Z</time>
      </trkpt>
      <trkpt lat="42.98496" lon="0.549">
        <ele>1004.929</ele>
        <time>2011-04-10T08:10:28Z</time>
      </trkpt>
      <trkpt lat="42.98481" lon="0.549">
        <ele>1008.103</ele>
        <time>2011-04-10T08:10:53Z</time>
      </trkpt>
      <trkpt lat="42.9847" lon="0.54898">
        <ele>1009.579</ele>
        <time>2011-04-10T08:11:14Z</time>
      </trkpt>
      <trkpt lat="42.98458" lon="0.54902">
        <ele>1010.645</ele>
        <time>2011-04-10T08:11:32Z</time>
      </trkpt>
      <trkpt lat="42.98458" lon="0.54905">
        <ele>1011.323</ele>
        <time>2011-04-10T08:11:53Z</time>
      </trkpt>
      <trkpt lat="42.98455" lon="0.54903">
        <ele>1012.793</ele>
        <time>2011-04-10T08:12:14Z</time>
      </trkpt>
      <trkpt lat="42.98455" lon="0.54905">
        <ele>1013.238</ele>
        <time>2011-04-10T08:12:42Z</time>
      </trkpt>
      <trkpt lat="42.98454" lon="0.54907">
        <ele>1013.391</ele>
        <time>2011-04-10T08:13:19Z</time>
      </trkpt>
      <trkpt lat="42.98438" lon="0.54907">
        <ele>1014.733</ele>
        <time>2011-04-10T08:13:38Z</time>
      </trkpt>
      <trkpt lat="42.98417" lon="0.549">
        <ele>1016.491</ele>
        <time>2011-04-10T08:14:03Z</time>
      </trkpt>
      <trkpt lat="42.98414" lon="0.54901">
        <ele>1016.499</ele>
        <time>2011-04-10T08:14:07Z</time>
      </trkpt>
      <trkpt lat="42.98412" lon="0.54893">
        <ele>1016.871</ele>
        <time>2011-04-10T08:14:11Z</time>
      </trkpt>
      <trkpt lat="42.984" lon="0.54896">
        <ele>1018.55</ele>
        <time>2011-04-10T08:14:27Z</time>
      </trkpt>
      <trkpt lat="42.98384" lon="0.549">
        <ele>1020.196</ele>
        <time>2011-04-10T08:14:49Z</time>
      </trkpt>
      <trkpt lat="42.98375" lon="0.54898">
        <ele>1022.208</ele>
        <time>2011-04-10T08:15:08Z</time>
      </trkpt>
      <trkpt lat="42.98369" lon="0.54896">
        <ele>1024.471</ele>
        <time>2011-04-10T08:15:25Z</time>
      </trkpt>
      <trkpt lat="42.9836" lon="0.549">
        <ele>1025.7</ele>
        <time>2011-04-10T08:15:42Z</time>
      </trkpt>
      <trkpt lat="42.98351" lon="0.54916">
        <ele>1026.186</ele>
        <time>2011-04-10T08:16:00Z</time>
      </trkpt>
      <trkpt lat="42.98343" lon="0.54928">
        <ele>1027.573</ele>
        <time>2011-04-10T08:16:15Z</time>
      </trkpt>
      <trkpt lat="42.98333" lon="0.54936">
        <ele>1030.485</ele>
        <time>2011-04-10T08:16:33Z</time>
      </trkpt>
      <trkpt lat="42.98322" lon="0.54938">
        <ele>1032.776</ele>
        <time>2011-04-10T08:16:57Z</time>
      </trkpt>
      <trkpt lat="42.98312" lon="0.54953">
        <ele>1034.962</ele>
        <time>2011-04-10T08:17:20Z</time>
      </trkpt>
      <trkpt lat="42.98301" lon="0.54962">
        <ele>1037.986</ele>
        <time>2011-04-10T08:17:38Z</time>
      </trkpt>
      <trkpt lat="42.98287" lon="0.54973">
        <ele>1040.595</ele>
        <time>2011-04-10T08:18:02Z</time>
      </trkpt>
      <trkpt lat="42.98273" lon="0.54977">
        <ele>1042.853</ele>
        <time>2011-04-10T08:18:23Z</time>
      </trkpt>
      <trkpt lat="42.98257" lon="0.54979">
        <ele>1044.618</ele>
        <time>2011-04-10T08:18:45Z</time>
      </trkpt>
      <trkpt lat="42.98239" lon="0.54975">
        <ele>1046.384</ele>
        <time>2011-04-10T08:19:06Z</time>
      </trkpt>
      <trkpt lat="42.98244" lon="0.54968">
        <ele>1049.466</ele>
        <time>2011-04-10T08:19:28Z</time>
      </trkpt>
      <trkpt lat="42.98257" lon="0.54961">
        <ele>1051.648</ele>
        <time>2011-04-10T08:19:50Z</time>
      </trkpt>
      <trkpt lat="42.98267" lon="0.54946">
        <ele>1054.449</ele>
        <time>2011-04-10T08:20:14Z</time>
      </trkpt>
      <trkpt lat="42.98271" lon="0.54929">
        <ele>1057.688</ele>
        <time>2011-04-10T08:20:34Z</time>
      </trkpt>
      <trkpt lat="42.98274" lon="0.54906">
        <ele>1060.692</ele>
        <time>2011-04-10T08:21:01Z</time>
      </trkpt>
      <trkpt lat="42.98278" lon="0.54887">
        <ele>1062.906</ele>
        <time>2011-04-10T08:21:22Z</time>
      </trkpt>
      <trkpt lat="42.98281" lon="0.54868">
        <ele>1065.803</ele>
        <time>2011-04-10T08:21:45Z</time>
      </trkpt>
      <trkpt lat="42.98282" lon="0.54843">
        <ele>1068.346</ele>
        <time>2011-04-10T08:22:08Z</time>
      </trkpt>
      <trkpt lat="42.98291" lon="0.54825">
        <ele>1071.598</ele>
        <time>2011-04-10T08:22:33Z</time>
      </trkpt>
      <trkpt lat="42.98292" lon="0.54804">
        <ele>1074.814</ele>
        <time>2011-04-10T08:23:00Z</time>
      </trkpt>
      <trkpt lat="42.98292" lon="0.54791">
        <ele>1076.541</ele>
        <time>2011-04-10T08:23:16Z</time>
      </trkpt>
      <trkpt lat="42.98295" lon="0.54786">
        <ele>1077.33</ele>
        <time>2011-04-10T08:23:32Z</time>
      </trkpt>
      <trkpt lat="42.98295" lon="0.54785">
        <ele>1077.387</ele>
        <time>2011-04-10T08:23:56Z</time>
      </trkpt>
      <trkpt lat="42.98299" lon="0.54787">
        <ele>1076.229</ele>
        <time>2011-04-10T08:24:17Z</time>
      </trkpt>
      <trkpt lat="42.98302" lon="0.54789">
        <ele>1076.331</ele>
        <time>2011-04-10T08:24:51Z</time>
      </trkpt>
      <trkpt lat="42.98311" lon="0.54791">
        <ele>1076.642</ele>
        <time>2011-04-10T08:25:18Z</time>
      </trkpt>
      <trkpt lat="42.98311" lon="0.54795">
        <ele>1076.716</ele>
        <time>2011-04-10T08:25:45Z</time>
      </trkpt>
      <trkpt lat="42.98298" lon="0.54802">
        <ele>1077.291</ele>
        <time>2011-04-10T08:26:12Z</time>
      </trkpt>
      <trkpt lat="42.98301" lon="0.54789">
        <ele>1076.968</ele>
        <time>2011-04-10T08:27:01Z</time>
      </trkpt>
      <trkpt lat="42.98302" lon="0.54788">
        <ele>1077.497</ele>
        <time>2011-04-10T08:27:43Z</time>
      </trkpt>
      <trkpt lat="42.98303" lon="0.54787">
        <ele>1077.892</ele>
        <time>2011-04-10T08:28:13Z</time>
      </trkpt>
      <trkpt lat="42.98304" lon="0.54788">
        <ele>1077.817</ele>
        <time>2011-04-10T08:28:40Z</time>
      </trkpt>
      <trkpt lat="42.98305" lon="0.54789">
        <ele>1078.036</ele>
        <time>2011-04-10T08:29:22Z</time>
      </trkpt>
      <trkpt lat="42.98305" lon="0.54789">
        <ele>1077.511</ele>
        <time>2011-04-10T08:29:57Z</time>
      </trkpt>
      <trkpt lat="42.98304" lon="0.54789">
        <ele>1077.653</ele>
        <time>2011-04-10T08:30:24Z</time>
      </trkpt>
      <trkpt lat="42.98317" lon="0.54817">
        <ele>1078.034</ele>
        <time>2011-04-10T08:30:49Z</time>
      </trkpt>
      <trkpt lat="42.98296" lon="0.54773">
        <ele>1078.233</ele>
        <time>2011-04-10T08:31:13Z</time>
      </trkpt>
      <trkpt lat="42.98309" lon="0.54764">
        <ele>1077.881</ele>
        <time>2011-04-10T08:31:31Z</time>
      </trkpt>
      <trkpt lat="42.98329" lon="0.54752">
        <ele>1076.958</ele>
        <time>2011-04-10T08:31:53Z</time>
      </trkpt>
      <trkpt lat="42.98331" lon="0.54751">
        <ele>1077.101</ele>
        <time>2011-04-10T08:32:08Z</time>
      </trkpt>
      <trkpt lat="42.98331" lon="0.54749">
        <ele>1077.456</ele>
        <time>2011-04-10T08:32:12Z</time>
      </trkpt>
      <trkpt lat="42.98334" lon="0.54746">
        <ele>1078.453</ele>
        <time>2011-04-10T08:32:21Z</time>
      </trkpt>
      <trkpt lat="42.98335" lon="0.54742">
        <ele>1080.043</ele>
        <time>2011-04-10T08:32:31Z</time>
      </trkpt>
      <trkpt lat="42.98347" lon="0.54735">
        <ele>1080.894</ele>
        <time>2011-04-10T08:32:43Z</time>
      </trkpt>
      <trkpt lat="42.98363" lon="0.54727">
        <ele>1082.101</ele>
        <time>2011-04-10T08:33:04Z</time>
      </trkpt>
      <trkpt lat="42.98374" lon="0.54714">
        <ele>1083.03</ele>
        <time>2011-04-10T08:33:22Z</time>
      </trkpt>
      <trkpt lat="42.98375" lon="0.547">
        <ele>1085.192</ele>
        <time>2011-04-10T08:33:47Z</time>
      </trkpt>
      <trkpt lat="42.98386" lon="0.54692">
        <ele>1088.335</ele>
        <time>2011-04-10T08:34:10Z</time>
      </trkpt>
      <trkpt lat="42.98397" lon="0.54681">
        <ele>1091.618</ele>
        <time>2011-04-10T08:34:36Z</time>
      </trkpt>
      <trkpt lat="42.98405" lon="0.54673">
        <ele>1092.286</ele>
        <time>2011-04-10T08:34:52Z</time>
      </trkpt>
      <trkpt lat="42.98417" lon="0.54666">
        <ele>1095.329</ele>
        <time>2011-04-10T08:35:14Z</time>
      </trkpt>
      <trkpt lat="42.9843" lon="0.54667">
        <ele>1096.857</ele>
        <time>2011-04-10T08:35:41Z</time>
      </trkpt>
      <trkpt lat="42.98438" lon="0.5466">
        <ele>1097.379</ele>
        <time>2011-04-10T08:36:02Z</time>
      </trkpt>
      <trkpt lat="42.98442" lon="0.54656">
        <ele>1097.203</ele>
        <time>2011-04-10T08:36:37Z</time>
      </trkpt>
      <trkpt lat="42.98461" lon="0.54654">
        <ele>1097.52</ele>
        <time>2011-04-10T08:37:14Z</time>
      </trkpt>
      <trkpt lat="42.98461" lon="0.54654">
        <ele>1097.602</ele>
        <time>2011-04-10T08:37:15Z</time>
      </trkpt>
      <trkpt lat="42.98459" lon="0.54656">
        <ele>1099.275</ele>
        <time>2011-04-10T08:37:35Z</time>
      </trkpt>
      <trkpt lat="42.98466" lon="0.5465">
        <ele>1100.949</ele>
        <time>2011-04-10T08:37:53Z</time>
      </trkpt>
      <trkpt lat="42.98475" lon="0.54645">
        <ele>1103.162</ele>
        <time>2011-04-10T08:38:13Z</time>
      </trkpt>
      <trkpt lat="42.98483" lon="0.54642">
        <ele>1105.38</ele>
        <time>2011-04-10T08:38:37Z</time>
      </trkpt>
      <trkpt lat="42.98492" lon="0.54627">
        <ele>1108.026</ele>
        <time>2011-04-10T08:39:04Z</time>
      </trkpt>
      <trkpt lat="42.98513" lon="0.54609">
        <ele>1110.129</ele>
        <time>2011-04-10T08:39:32Z</time>
      </trkpt>
      <trkpt lat="42.98524" lon="0.54606">
        <ele>1112.719</ele>
        <time>2011-04-10T08:39:58Z</time>
      </trkpt>
      <trkpt lat="42.98523" lon="0.54596">
        <ele>1112.996</ele>
        <time>2011-04-10T08:40:29Z</time>
      </trkpt>
      <trkpt lat="42.98515" lon="0.54592">
        <ele>1115.333</ele>
        <time>2011-04-10T08:40:50Z</time>
      </trkpt>
      <trkpt lat="42.98508" lon="0.54592">
        <ele>1118.17</ele>
        <time>2011-04-10T08:41:09Z</time>
      </trkpt>
      <trkpt lat="42.98497" lon="0.54598">
        <ele>1120.972</ele>
        <time>2011-04-10T08:41:32Z</time>
      </trkpt>
      <trkpt lat="42.98488" lon="0.54595">
        <ele>1123.474</ele>
        <time>2011-04-10T08:41:54Z</time>
      </trkpt>
      <trkpt lat="42.98476" lon="0.54591">
        <ele>1126.547</ele>
        <time>2011-04-10T08:42:14Z</time>
      </trkpt>
      <trkpt lat="42.98471" lon="0.54588">
        <ele>1129.236</ele>
        <time>2011-04-10T08:42:33Z</time>
      </trkpt>
      <trkpt lat="42.98469" lon="0.54579">
        <ele>1132.481</ele>
        <time>2011-04-10T08:42:59Z</time>
      </trkpt>
      <trkpt lat="42.98465" lon="0.54567">
        <ele>1135.179</ele>
        <time>2011-04-10T08:43:24Z</time>
      </trkpt>
      <trkpt lat="42.98462" lon="0.5456">
        <ele>1138.231</ele>
        <time>2011-04-10T08:43:49Z</time>
      </trkpt>
      <trkpt lat="42.98458" lon="0.54543">
        <ele>1141.266</ele>
        <time>2011-04-10T08:44:18Z</time>
      </trkpt>
      <trkpt lat="42.98456" lon="0.5453">
        <ele>1144.147</ele>
        <time>2011-04-10T08:44:40Z</time>
      </trkpt>
      <trkpt lat="42.98452" lon="0.54526">
        <ele>1146.017</ele>
        <time>2011-04-10T08:44:57Z</time>
      </trkpt>
      <trkpt lat="42.98451" lon="0.54515">
        <ele>1148.397</ele>
        <time>2011-04-10T08:45:17Z</time>
      </trkpt>
      <trkpt lat="42.98444" lon="0.54509">
        <ele>1150.853</ele>
        <time>2011-04-10T08:45:41Z</time>
      </trkpt>
      <trkpt lat="42.98438" lon="0.54512">
        <ele>1152.603</ele>
        <time>2011-04-10T08:46:02Z</time>
      </trkpt>
      <trkpt lat="42.98438" lon="0.54514">
        <ele>1153.32</ele>
        <time>2011-04-10T08:46:21Z</time>
      </trkpt>
      <trkpt lat="42.98438" lon="0.54507">
        <ele>1154.532</ele>
        <time>2011-04-10T08:46:42Z</time>
      </trkpt>
      <trkpt lat="42.98436" lon="0.54491">
        <ele>1157.216</ele>
        <time>2011-04-10T08:46:59Z</time>
      </trkpt>
      <trkpt lat="42.98445" lon="0.54479">
        <ele>1160.551</ele>
        <time>2011-04-10T08:47:22Z</time>
      </trkpt>
      <trkpt lat="42.98457" lon="0.54477">
        <ele>1163.686</ele>
        <time>2011-04-10T08:47:44Z</time>
      </trkpt>
      <trkpt lat="42.98477" lon="0.54477">
        <ele>1166.999</ele>
        <time>2011-04-10T08:48:07Z</time>
      </trkpt>
      <trkpt lat="42.98492" lon="0.54462">
        <ele>1169.846</ele>
        <time>2011-04-10T08:48:32Z</time>
      </trkpt>
      <trkpt lat="42.98504" lon="0.54447">
        <ele>1172.887</ele>
        <time>2011-04-10T08:48:55Z</time>
      </trkpt>
      <trkpt lat="42.9851" lon="0.5445">
        <ele>1175.892</ele>
        <time>2011-04-10T08:49:14Z</time>
      </trkpt>
      <trkpt lat="42.98524" lon="0.54446">
        <ele>1178.046</ele>
        <time>2011-04-10T08:49:34Z</time>
      </trkpt>
      <trkpt lat="42.98544" lon="0.54445">
        <ele>1181.057</ele>
        <time>2011-04-10T08:49:55Z</time>
      </trkpt>
      <trkpt lat="42.98551" lon="0.54442">
        <ele>1184.256</ele>
        <time>2011-04-10T08:50:18Z</time>
      </trkpt>
      <trkpt lat="42.98556" lon="0.54438">
        <ele>1185.256</ele>
        <time>2011-04-10T08:50:27Z</time>
      </trkpt>
      <trkpt lat="42.98563" lon="0.54431">
        <ele>1188.032</ele>
        <time>2011-04-10T08:50:46Z</time>
      </trkpt>
      <trkpt lat="42.98573" lon="0.54421">
        <ele>1189.641</ele>
        <time>2011-04-10T08:51:00Z</time>
      </trkpt>
      <trkpt lat="42.98581" lon="0.54411">
        <ele>1192.439</ele>
        <time>2011-04-10T08:51:25Z</time>
      </trkpt>
      <trkpt lat="42.98583" lon="0.54401">
        <ele>1194.377</ele>
        <time>2011-04-10T08:51:45Z</time>
      </trkpt>
      <trkpt lat="42.98585" lon="0.54392">
        <ele>1197.638</ele>
        <time>2011-04-10T08:52:04Z</time>
      </trkpt>
      <trkpt lat="42.98587" lon="0.54374">
        <ele>1200.669</ele>
        <time>2011-04-10T08:52:28Z</time>
      </trkpt>
      <trkpt lat="42.98586" lon="0.54361">
        <ele>1203.215</ele>
        <time>2011-04-10T08:52:49Z</time>
      </trkpt>
      <trkpt lat="42.98591" lon="0.54345">
        <ele>1205.748</ele>
        <time>2011-04-10T08:53:10Z</time>
      </trkpt>
      <trkpt lat="42.98593" lon="0.54332">
        <ele>1208.518</ele>
        <time>2011-04-10T08:53:31Z</time>
      </trkpt>
      <trkpt lat="42.98593" lon="0.54324">
        <ele>1210.769</ele>
        <time>2011-04-10T08:53:49Z</time>
      </trkpt>
      <trkpt lat="42.98594" lon="0.54325">
        <ele>1211.293</ele>
        <time>2011-04-10T08:54:12Z</time>
      </trkpt>
      <trkpt lat="42.98597" lon="0.54319">
        <ele>1212.228</ele>
        <time>2011-04-10T08:54:33Z</time>
      </trkpt>
      <trkpt lat="42.98598" lon="0.54311">
        <ele>1213.043</ele>
        <time>2011-04-10T08:54:48Z</time>
      </trkpt>
      <trkpt lat="42.98597" lon="0.54299">
        <ele>1214.632</ele>
        <time>2011-04-10T08:55:03Z</time>
      </trkpt>
      <trkpt lat="42.98597" lon="0.54298">
        <ele>1214.87</ele>
        <time>2011-04-10T08:55:05Z</time>
      </trkpt>
      <trkpt lat="42.98597" lon="0.54292">
        <ele>1216.718</ele>
        <time>2011-04-10T08:55:13Z</time>
      </trkpt>
      <trkpt lat="42.98597" lon="0.54283">
        <ele>1217.664</ele>
        <time>2011-04-10T08:55:25Z</time>
      </trkpt>
      <trkpt lat="42.98602" lon="0.54279">
        <ele>1219.113</ele>
        <time>2011-04-10T08:55:34Z</time>
      </trkpt>
      <trkpt lat="42.98601" lon="0.5427">
        <ele>1220.995</ele>
        <time>2011-04-10T08:55:47Z</time>
      </trkpt>
      <trkpt lat="42.986" lon="0.54256">
        <ele>1224.121</ele>
        <time>2011-04-10T08:56:04Z</time>
      </trkpt>
      <trkpt lat="42.98601" lon="0.54242">
        <ele>1226.248</ele>
        <time>2011-04-10T08:56:21Z</time>
      </trkpt>
      <trkpt lat="42.986" lon="0.54236">
        <ele>1228.514</ele>
        <time>2011-04-10T08:56:39Z</time>
      </trkpt>
      <trkpt lat="42.98593" lon="0.54249">
        <ele>1230.364</ele>
        <time>2011-04-10T08:56:57Z</time>
      </trkpt>
      <trkpt lat="42.98583" lon="0.54257">
        <ele>1233.478</ele>
        <time>2011-04-10T08:57:15Z</time>
      </trkpt>
      <trkpt lat="42.98573" lon="0.54248">
        <ele>1236.633</ele>
        <time>2011-04-10T08:57:33Z</time>
      </trkpt>
      <trkpt lat="42.98577" lon="0.5423">
        <ele>1239.377</ele>
        <time>2011-04-10T08:57:53Z</time>
      </trkpt>
      <trkpt lat="42.98576" lon="0.54209">
        <ele>1241.957</ele>
        <time>2011-04-10T08:58:14Z</time>
      </trkpt>
      <trkpt lat="42.98577" lon="0.54195">
        <ele>1244.987</ele>
        <time>2011-04-10T08:58:38Z</time>
      </trkpt>
      <trkpt lat="42.98578" lon="0.54182">
        <ele>1247.941</ele>
        <time>2011-04-10T08:59:00Z</time>
      </trkpt>
      <trkpt lat="42.98581" lon="0.54166">
        <ele>1251.091</ele>
        <time>2011-04-10T08:59:21Z</time>
      </trkpt>
      <trkpt lat="42.98587" lon="0.54152">
        <ele>1253.58</ele>
        <time>2011-04-10T08:59:41Z</time>
      </trkpt>
      <trkpt lat="42.98592" lon="0.54135">
        <ele>1256.548</ele>
        <time>2011-04-10T09:00:00Z</time>
      </trkpt>
      <trkpt lat="42.98592" lon="0.54127">
        <ele>1258.75</ele>
        <time>2011-04-10T09:00:19Z</time>
      </trkpt>
      <trkpt lat="42.98594" lon="0.54112">
        <ele>1262.027</ele>
        <time>2011-04-10T09:00:39Z</time>
      </trkpt>
      <trkpt lat="42.98596" lon="0.54098">
        <ele>1265.172</ele>
        <time>2011-04-10T09:00:59Z</time>
      </trkpt>
      <trkpt lat="42.98599" lon="0.54089">
        <ele>1267.542</ele>
        <time>2011-04-10T09:01:18Z</time>
      </trkpt>
      <trkpt lat="42.98604" lon="0.54072">
        <ele>1270.73</ele>
        <time>2011-04-10T09:01:38Z</time>
      </trkpt>
      <trkpt lat="42.98609" lon="0.5406">
        <ele>1273.775</ele>
        <time>2011-04-10T09:01:57Z</time>
      </trkpt>
      <trkpt lat="42.98604" lon="0.54055">
        <ele>1276.191</ele>
        <time>2011-04-10T09:02:18Z</time>
      </trkpt>
      <trkpt lat="42.98597" lon="0.54068">
        <ele>1278.391</ele>
        <time>2011-04-10T09:02:33Z</time>
      </trkpt>
      <trkpt lat="42.98595" lon="0.54069">
        <ele>1278.861</ele>
        <time>2011-04-10T09:02:38Z</time>
      </trkpt>
      <trkpt lat="42.98587" lon="0.54077">
        <ele>1281.024</ele>
        <time>2011-04-10T09:02:52Z</time>
      </trkpt>
      <trkpt lat="42.98577" lon="0.54089">
        <ele>1283.113</ele>
        <time>2011-04-10T09:03:07Z</time>
      </trkpt>
      <trkpt lat="42.98568" lon="0.54097">
        <ele>1285.451</ele>
        <time>2011-04-10T09:03:24Z</time>
      </trkpt>
      <trkpt lat="42.98559" lon="0.54104">
        <ele>1287.781</ele>
        <time>2011-04-10T09:03:41Z</time>
      </trkpt>
      <trkpt lat="42.98548" lon="0.54111">
        <ele>1290.172</ele>
        <time>2011-04-10T09:04:02Z</time>
      </trkpt>
      <trkpt lat="42.98534" lon="0.54121">
        <ele>1292.65</ele>
        <time>2011-04-10T09:04:27Z</time>
      </trkpt>
      <trkpt lat="42.98526" lon="0.5413">
        <ele>1295.504</ele>
        <time>2011-04-10T09:04:45Z</time>
      </trkpt>
      <trkpt lat="42.98517" lon="0.54141">
        <ele>1296.892</ele>
        <time>2011-04-10T09:05:01Z</time>
      </trkpt>
      <trkpt lat="42.98508" lon="0.54137">
        <ele>1298.638</ele>
        <time>2011-04-10T09:05:18Z</time>
      </trkpt>
      <trkpt lat="42.98513" lon="0.54112">
        <ele>1300.931</ele>
        <time>2011-04-10T09:05:42Z</time>
      </trkpt>
      <trkpt lat="42.9852" lon="0.54095">
        <ele>1303.055</ele>
        <time>2011-04-10T09:06:03Z</time>
      </trkpt>
      <trkpt lat="42.98526" lon="0.54077">
        <ele>1304.918</ele>
        <time>2011-04-10T09:06:22Z</time>
      </trkpt>
      <trkpt lat="42.98534" lon="0.54056">
        <ele>1307.252</ele>
        <time>2011-04-10T09:06:44Z</time>
      </trkpt>
      <trkpt lat="42.98533" lon="0.54042">
        <ele>1310.148</ele>
        <time>2011-04-10T09:07:07Z</time>
      </trkpt>
      <trkpt lat="42.98539" lon="0.54017">
        <ele>1313.229</ele>
        <time>2011-04-10T09:07:35Z</time>
      </trkpt>
      <trkpt lat="42.98546" lon="0.53992">
        <ele>1315.558</ele>
        <time>2011-04-10T09:07:57Z</time>
      </trkpt>
      <trkpt lat="42.98554" lon="0.53967">
        <ele>1318.008</ele>
        <time>2011-04-10T09:08:21Z</time>
      </trkpt>
      <trkpt lat="42.9856" lon="0.53939">
        <ele>1320.644</ele>
        <time>2011-04-10T09:08:47Z</time>
      </trkpt>
      <trkpt lat="42.98561" lon="0.53917">
        <ele>1323.3</ele>
        <time>2011-04-10T09:09:12Z</time>
      </trkpt>
      <trkpt lat="42.98574" lon="0.539">
        <ele>1325.431</ele>
        <time>2011-04-10T09:09:35Z</time>
      </trkpt>
      <trkpt lat="42.98582" lon="0.53877">
        <ele>1328.495</ele>
        <time>2011-04-10T09:09:56Z</time>
      </trkpt>
      <trkpt lat="42.9859" lon="0.53858">
        <ele>1330.444</ele>
        <time>2011-04-10T09:10:18Z</time>
      </trkpt>
      <trkpt lat="42.98599" lon="0.53834">
        <ele>1332.871</ele>
        <time>2011-04-10T09:10:40Z</time>
      </trkpt>
      <trkpt lat="42.98605" lon="0.53812">
        <ele>1334.848</ele>
        <time>2011-04-10T09:11:01Z</time>
      </trkpt>
      <trkpt lat="42.98608" lon="0.53793">
        <ele>1336.607</ele>
        <time>2011-04-10T09:11:21Z</time>
      </trkpt>
      <trkpt lat="42.98608" lon="0.5378">
        <ele>1338.629</ele>
        <time>2011-04-10T09:11:34Z</time>
      </trkpt>
      <trkpt lat="42.98611" lon="0.53769">
        <ele>1339.349</ele>
        <time>2011-04-10T09:11:51Z</time>
      </trkpt>
      <trkpt lat="42.98615" lon="0.53748">
        <ele>1342.109</ele>
        <time>2011-04-10T09:12:12Z</time>
      </trkpt>
      <trkpt lat="42.98619" lon="0.53738">
        <ele>1342.424</ele>
        <time>2011-04-10T09:12:20Z</time>
      </trkpt>
      <trkpt lat="42.98618" lon="0.53719">
        <ele>1345.369</ele>
        <time>2011-04-10T09:12:43Z</time>
      </trkpt>
      <trkpt lat="42.98622" lon="0.53714">
        <ele>1343.795</ele>
        <time>2011-04-10T09:13:02Z</time>
      </trkpt>
      <trkpt lat="42.98623" lon="0.53716">
        <ele>1343.577</ele>
        <time>2011-04-10T09:13:30Z</time>
      </trkpt>
      <trkpt lat="42.98623" lon="0.53717">
        <ele>1344.194</ele>
        <time>2011-04-10T09:13:51Z</time>
      </trkpt>
      <trkpt lat="42.98623" lon="0.53717">
        <ele>1343.572</ele>
        <time>2011-04-10T09:14:25Z</time>
      </trkpt>
      <trkpt lat="42.98624" lon="0.53717">
        <ele>1343.356</ele>
        <time>2011-04-10T09:15:02Z</time>
      </trkpt>
      <trkpt lat="42.98624" lon="0.53717">
        <ele>1343.61</ele>
        <time>2011-04-10T09:15:34Z</time>
      </trkpt>
      <trkpt lat="42.98625" lon="0.53722">
        <ele>1344.757</ele>
        <time>2011-04-10T09:15:59Z</time>
      </trkpt>
      <trkpt lat="42.98624" lon="0.53709">
        <ele>1345.135</ele>
        <time>2011-04-10T09:16:17Z</time>
      </trkpt>
      <trkpt lat="42.98624" lon="0.5369">
        <ele>1346.851</ele>
        <time>2011-04-10T09:16:35Z</time>
      </trkpt>
      <trkpt lat="42.98625" lon="0.53672">
        <ele>1348.783</ele>
        <time>2011-04-10T09:16:49Z</time>
      </trkpt>
      <trkpt lat="42.98628" lon="0.53655">
        <ele>1350.182</ele>
        <time>2011-04-10T09:17:04Z</time>
      </trkpt>
      <trkpt lat="42.98624" lon="0.53637">
        <ele>1351.061</ele>
        <time>2011-04-10T09:17:22Z</time>
      </trkpt>
      <trkpt lat="42.98618" lon="0.53619">
        <ele>1353.148</ele>
        <time>2011-04-10T09:17:42Z</time>
      </trkpt>
      <trkpt lat="42.98615" lon="0.536">
        <ele>1356.34</ele>
        <time>2011-04-10T09:18:04Z</time>
      </trkpt>
      <trkpt lat="42.9861" lon="0.53585">
        <ele>1359.407</ele>
        <time>2011-04-10T09:18:24Z</time>
      </trkpt>
      <trkpt lat="42.98602" lon="0.53593">
        <ele>1361.639</ele>
        <time>2011-04-10T09:18:40Z</time>
      </trkpt>
      <trkpt lat="42.98598" lon="0.5361">
        <ele>1363.663</ele>
        <time>2011-04-10T09:18:59Z</time>
      </trkpt>
      <trkpt lat="42.98593" lon="0.53629">
        <ele>1366.798</ele>
        <time>2011-04-10T09:19:20Z</time>
      </trkpt>
      <trkpt lat="42.98583" lon="0.53647">
        <ele>1369.449</ele>
        <time>2011-04-10T09:19:41Z</time>
      </trkpt>
      <trkpt lat="42.98578" lon="0.53668">
        <ele>1371.777</ele>
        <time>2011-04-10T09:20:01Z</time>
      </trkpt>
      <trkpt lat="42.9857" lon="0.53683">
        <ele>1374.816</ele>
        <time>2011-04-10T09:20:21Z</time>
      </trkpt>
      <trkpt lat="42.98561" lon="0.53697">
        <ele>1376.922</ele>
        <time>2011-04-10T09:20:41Z</time>
      </trkpt>
      <trkpt lat="42.98555" lon="0.53714">
        <ele>1379.419</ele>
        <time>2011-04-10T09:20:58Z</time>
      </trkpt>
      <trkpt lat="42.98548" lon="0.5373">
        <ele>1381.279</ele>
        <time>2011-04-10T09:21:16Z</time>
      </trkpt>
      <trkpt lat="42.98539" lon="0.53753">
        <ele>1383.878</ele>
        <time>2011-04-10T09:21:36Z</time>
      </trkpt>
      <trkpt lat="42.98531" lon="0.53769">
        <ele>1386.282</ele>
        <time>2011-04-10T09:21:55Z</time>
      </trkpt>
      <trkpt lat="42.98521" lon="0.53783">
        <ele>1388.727</ele>
        <time>2011-04-10T09:22:14Z</time>
      </trkpt>
      <trkpt lat="42.98515" lon="0.53791">
        <ele>1390.307</ele>
        <time>2011-04-10T09:22:27Z</time>
      </trkpt>
      <trkpt lat="42.98502" lon="0.53805">
        <ele>1392.815</ele>
        <time>2011-04-10T09:22:48Z</time>
      </trkpt>
      <trkpt lat="42.98494" lon="0.53818">
        <ele>1394.988</ele>
        <time>2011-04-10T09:23:07Z</time>
      </trkpt>
      <trkpt lat="42.98485" lon="0.53838">
        <ele>1397.79</ele>
        <time>2011-04-10T09:23:27Z</time>
      </trkpt>
      <trkpt lat="42.98476" lon="0.53853">
        <ele>1399.739</ele>
        <time>2011-04-10T09:23:46Z</time>
      </trkpt>
      <trkpt lat="42.98467" lon="0.5387">
        <ele>1402.121</ele>
        <time>2011-04-10T09:24:03Z</time>
      </trkpt>
      <trkpt lat="42.9846" lon="0.53882">
        <ele>1404.084</ele>
        <time>2011-04-10T09:24:16Z</time>
      </trkpt>
      <trkpt lat="42.9846" lon="0.53882">
        <ele>1404.426</ele>
        <time>2011-04-10T09:24:17Z</time>
      </trkpt>
      <trkpt lat="42.98448" lon="0.53896">
        <ele>1407.032</ele>
        <time>2011-04-10T09:24:36Z</time>
      </trkpt>
      <trkpt lat="42.98436" lon="0.53913">
        <ele>1409.684</ele>
        <time>2011-04-10T09:24:57Z</time>
      </trkpt>
      <trkpt lat="42.98426" lon="0.53928">
        <ele>1412.322</ele>
        <time>2011-04-10T09:25:16Z</time>
      </trkpt>
      <trkpt lat="42.98416" lon="0.53941">
        <ele>1414.26</ele>
        <time>2011-04-10T09:25:33Z</time>
      </trkpt>
      <trkpt lat="42.98407" lon="0.53949">
        <ele>1416.682</ele>
        <time>2011-04-10T09:25:50Z</time>
      </trkpt>
      <trkpt lat="42.9839" lon="0.53968">
        <ele>1419.317</ele>
        <time>2011-04-10T09:26:12Z</time>
      </trkpt>
      <trkpt lat="42.98379" lon="0.53976">
        <ele>1420.694</ele>
        <time>2011-04-10T09:26:27Z</time>
      </trkpt>
      <trkpt lat="42.98365" lon="0.53981">
        <ele>1423.953</ele>
        <time>2011-04-10T09:26:47Z</time>
      </trkpt>
      <trkpt lat="42.98361" lon="0.53981">
        <ele>1424.268</ele>
        <time>2011-04-10T09:26:51Z</time>
      </trkpt>
      <trkpt lat="42.98353" lon="0.53977">
        <ele>1426.851</ele>
        <time>2011-04-10T09:27:07Z</time>
      </trkpt>
      <trkpt lat="42.98341" lon="0.53976">
        <ele>1428.751</ele>
        <time>2011-04-10T09:27:26Z</time>
      </trkpt>
      <trkpt lat="42.98327" lon="0.53977">
        <ele>1431.645</ele>
        <time>2011-04-10T09:27:47Z</time>
      </trkpt>
      <trkpt lat="42.98314" lon="0.53985">
        <ele>1434.69</ele>
        <time>2011-04-10T09:28:06Z</time>
      </trkpt>
      <trkpt lat="42.98303" lon="0.53989">
        <ele>1435.946</ele>
        <time>2011-04-10T09:28:24Z</time>
      </trkpt>
      <trkpt lat="42.98287" lon="0.54002">
        <ele>1439.374</ele>
        <time>2011-04-10T09:28:46Z</time>
      </trkpt>
      <trkpt lat="42.98273" lon="0.54012">
        <ele>1441.154</ele>
        <time>2011-04-10T09:29:04Z</time>
      </trkpt>
      <trkpt lat="42.98266" lon="0.54019">
        <ele>1441.305</ele>
        <time>2011-04-10T09:29:14Z</time>
      </trkpt>
      <trkpt lat="42.98253" lon="0.54029">
        <ele>1443.18</ele>
        <time>2011-04-10T09:29:32Z</time>
      </trkpt>
      <trkpt lat="42.9824" lon="0.54045">
        <ele>1446.234</ele>
        <time>2011-04-10T09:29:51Z</time>
      </trkpt>
      <trkpt lat="42.98227" lon="0.54053">
        <ele>1448.375</ele>
        <time>2011-04-10T09:30:08Z</time>
      </trkpt>
      <trkpt lat="42.98215" lon="0.54057">
        <ele>1450.376</ele>
        <time>2011-04-10T09:30:26Z</time>
      </trkpt>
      <trkpt lat="42.98203" lon="0.54066">
        <ele>1453.044</ele>
        <time>2011-04-10T09:30:45Z</time>
      </trkpt>
      <trkpt lat="42.9819" lon="0.54076">
        <ele>1456.333</ele>
        <time>2011-04-10T09:31:04Z</time>
      </trkpt>
      <trkpt lat="42.98177" lon="0.54082">
        <ele>1458.509</ele>
        <time>2011-04-10T09:31:21Z</time>
      </trkpt>
      <trkpt lat="42.98163" lon="0.54092">
        <ele>1460.897</ele>
        <time>2011-04-10T09:31:41Z</time>
      </trkpt>
      <trkpt lat="42.98148" lon="0.54092">
        <ele>1463.628</ele>
        <time>2011-04-10T09:32:00Z</time>
      </trkpt>
      <trkpt lat="42.9814" lon="0.54098">
        <ele>1465.245</ele>
        <time>2011-04-10T09:32:18Z</time>
      </trkpt>
      <trkpt lat="42.98135" lon="0.54098">
        <ele>1468.486</ele>
        <time>2011-04-10T09:32:38Z</time>
      </trkpt>
      <trkpt lat="42.98119" lon="0.54108">
        <ele>1471.028</ele>
        <time>2011-04-10T09:33:03Z</time>
      </trkpt>
      <trkpt lat="42.98111" lon="0.54119">
        <ele>1474.063</ele>
        <time>2011-04-10T09:33:27Z</time>
      </trkpt>
      <trkpt lat="42.98096" lon="0.54118">
        <ele>1477.604</ele>
        <time>2011-04-10T09:33:51Z</time>
      </trkpt>
      <trkpt lat="42.98087" lon="0.54126">
        <ele>1477.32</ele>
        <time>2011-04-10T09:34:10Z</time>
      </trkpt>
      <trkpt lat="42.9807" lon="0.54131">
        <ele>1480.333</ele>
        <time>2011-04-10T09:34:32Z</time>
      </trkpt>
      <trkpt lat="42.98059" lon="0.5413">
        <ele>1482.234</ele>
        <time>2011-04-10T09:34:48Z</time>
      </trkpt>
      <trkpt lat="42.98047" lon="0.54136">
        <ele>1483.496</ele>
        <time>2011-04-10T09:35:09Z</time>
      </trkpt>
      <trkpt lat="42.98034" lon="0.5414">
        <ele>1484.635</ele>
        <time>2011-04-10T09:35:30Z</time>
      </trkpt>
      <trkpt lat="42.98028" lon="0.54148">
        <ele>1486.638</ele>
        <time>2011-04-10T09:35:49Z</time>
      </trkpt>
      <trkpt lat="42.98016" lon="0.54155">
        <ele>1487.927</ele>
        <time>2011-04-10T09:36:08Z</time>
      </trkpt>
      <trkpt lat="42.98013" lon="0.54154">
        <ele>1489.143</ele>
        <time>2011-04-10T09:36:21Z</time>
      </trkpt>
      <trkpt lat="42.98012" lon="0.54157">
        <ele>1489.063</ele>
        <time>2011-04-10T09:36:40Z</time>
      </trkpt>
      <trkpt lat="42.98011" lon="0.54154">
        <ele>1489.241</ele>
        <time>2011-04-10T09:37:12Z</time>
      </trkpt>
      <trkpt lat="42.98009" lon="0.54147">
        <ele>1488.93</ele>
        <time>2011-04-10T09:37:37Z</time>
      </trkpt>
      <trkpt lat="42.9801" lon="0.54138">
        <ele>1492.234</ele>
        <time>2011-04-10T09:37:48Z</time>
      </trkpt>
      <trkpt lat="42.98016" lon="0.54128">
        <ele>1492.976</ele>
        <time>2011-04-10T09:38:01Z</time>
      </trkpt>
      <trkpt lat="42.98014" lon="0.54129">
        <ele>1493.964</ele>
        <time>2011-04-10T09:38:03Z</time>
      </trkpt>
      <trkpt lat="42.98016" lon="0.54117">
        <ele>1495.392</ele>
        <time>2011-04-10T09:38:17Z</time>
      </trkpt>
      <trkpt lat="42.98018" lon="0.54108">
        <ele>1498.474</ele>
        <time>2011-04-10T09:38:29Z</time>
      </trkpt>
      <trkpt lat="42.9802" lon="0.54102">
        <ele>1500.12</ele>
        <time>2011-04-10T09:38:43Z</time>
      </trkpt>
      <trkpt lat="42.98028" lon="0.54087">
        <ele>1501.275</ele>
        <time>2011-04-10T09:39:02Z</time>
      </trkpt>
      <trkpt lat="42.98032" lon="0.54073">
        <ele>1503.825</ele>
        <time>2011-04-10T09:39:21Z</time>
      </trkpt>
      <trkpt lat="42.98037" lon="0.54065">
        <ele>1506.443</ele>
        <time>2011-04-10T09:39:40Z</time>
      </trkpt>
      <trkpt lat="42.98052" lon="0.54053">
        <ele>1508.69</ele>
        <time>2011-04-10T09:40:02Z</time>
      </trkpt>
      <trkpt lat="42.98061" lon="0.5404">
        <ele>1511.639</ele>
        <time>2011-04-10T09:40:23Z</time>
      </trkpt>
      <trkpt lat="42.98064" lon="0.5403">
        <ele>1514.248</ele>
        <time>2011-04-10T09:40:41Z</time>
      </trkpt>
      <trkpt lat="42.98064" lon="0.54029">
        <ele>1514.48</ele>
        <time>2011-04-10T09:40:42Z</time>
      </trkpt>
      <trkpt lat="42.98071" lon="0.54018">
        <ele>1516.336</ele>
        <time>2011-04-10T09:40:59Z</time>
      </trkpt>
      <trkpt lat="42.98073" lon="0.54013">
        <ele>1518.901</ele>
        <time>2011-04-10T09:41:14Z</time>
      </trkpt>
      <trkpt lat="42.98076" lon="0.54003">
        <ele>1519.473</ele>
        <time>2011-04-10T09:41:26Z</time>
      </trkpt>
      <trkpt lat="42.98078" lon="0.53985">
        <ele>1517.344</ele>
        <time>2011-04-10T09:41:42Z</time>
      </trkpt>
      <trkpt lat="42.98083" lon="0.53969">
        <ele>1517.193</ele>
        <time>2011-04-10T09:41:58Z</time>
      </trkpt>
      <trkpt lat="42.98089" lon="0.53953">
        <ele>1518.06</ele>
        <time>2011-04-10T09:42:15Z</time>
      </trkpt>
      <trkpt lat="42.98094" lon="0.53937">
        <ele>1520.846</ele>
        <time>2011-04-10T09:42:33Z</time>
      </trkpt>
      <trkpt lat="42.98098" lon="0.53928">
        <ele>1522.085</ele>
        <time>2011-04-10T09:42:43Z</time>
      </trkpt>
      <trkpt lat="42.98102" lon="0.53922">
        <ele>1523.152</ele>
        <time>2011-04-10T09:42:49Z</time>
      </trkpt>
      <trkpt lat="42.98105" lon="0.53919">
        <ele>1523.162</ele>
        <time>2011-04-10T09:42:52Z</time>
      </trkpt>
      <trkpt lat="42.98114" lon="0.53908">
        <ele>1524.236</ele>
        <time>2011-04-10T09:43:06Z</time>
      </trkpt>
      <trkpt lat="42.98122" lon="0.53894">
        <ele>1525.985</ele>
        <time>2011-04-10T09:43:24Z</time>
      </trkpt>
      <trkpt lat="42.98132" lon="0.53881">
        <ele>1528.498</ele>
        <time>2011-04-10T09:43:42Z</time>
      </trkpt>
      <trkpt lat="42.98139" lon="0.53868">
        <ele>1528.467</ele>
        <time>2011-04-10T09:43:57Z</time>
      </trkpt>
      <trkpt lat="42.9814" lon="0.53864">
        <ele>1530.186</ele>
        <time>2011-04-10T09:44:01Z</time>
      </trkpt>
      <trkpt lat="42.98147" lon="0.53844">
        <ele>1532.29</ele>
        <time>2011-04-10T09:44:20Z</time>
      </trkpt>
      <trkpt lat="42.98149" lon="0.53829">
        <ele>1533.644</ele>
        <time>2011-04-10T09:44:36Z</time>
      </trkpt>
      <trkpt lat="42.98154" lon="0.53813">
        <ele>1536.585</ele>
        <time>2011-04-10T09:44:53Z</time>
      </trkpt>
      <trkpt lat="42.98154" lon="0.53797">
        <ele>1538.647</ele>
        <time>2011-04-10T09:45:11Z</time>
      </trkpt>
      <trkpt lat="42.98153" lon="0.53795">
        <ele>1539.983</ele>
        <time>2011-04-10T09:45:14Z</time>
      </trkpt>
      <trkpt lat="42.98151" lon="0.53782">
        <ele>1543.448</ele>
        <time>2011-04-10T09:45:29Z</time>
      </trkpt>
      <trkpt lat="42.9815" lon="0.5377">
        <ele>1546.007</ele>
        <time>2011-04-10T09:45:44Z</time>
      </trkpt>
      <trkpt lat="42.98154" lon="0.5376">
        <ele>1545.247</ele>
        <time>2011-04-10T09:45:57Z</time>
      </trkpt>
      <trkpt lat="42.98156" lon="0.53759">
        <ele>1544.618</ele>
        <time>2011-04-10T09:46:04Z</time>
      </trkpt>
      <trkpt lat="42.98157" lon="0.5376">
        <ele>1545.629</ele>
        <time>2011-04-10T09:46:15Z</time>
      </trkpt>
      <trkpt lat="42.98158" lon="0.53761">
        <ele>1545.764</ele>
        <time>2011-04-10T09:46:28Z</time>
      </trkpt>
      <trkpt lat="42.98158" lon="0.53763">
        <ele>1546.304</ele>
        <time>2011-04-10T09:46:51Z</time>
      </trkpt>
      <trkpt lat="42.9816" lon="0.53763">
        <ele>1545.476</ele>
        <time>2011-04-10T09:47:06Z</time>
      </trkpt>
      <trkpt lat="42.98159" lon="0.53761">
        <ele>1545.549</ele>
        <time>2011-04-10T09:47:32Z</time>
      </trkpt>
      <trkpt lat="42.98157" lon="0.53763">
        <ele>1545.32</ele>
        <time>2011-04-10T09:47:55Z</time>
      </trkpt>
      <trkpt lat="42.98157" lon="0.53762">
        <ele>1545.228</ele>
        <time>2011-04-10T09:47:57Z</time>
      </trkpt>
    </trkseg>
  </trk>
</gpx>